Simultaneous Nadir Overpasses (SNOs) Predictions

Prediction of SNOs near equator between NOAA-19 and NPP Satellite Orbit:

Table of predicted SNOs near equator for the next 14.0 days since TLE Epoch: 8/12/2012
Index Date (NOAA-19) Time (NOAA-19) NOAA-19 Lat,Lon Date (NPP) Time (NPP) NPP Lat,Lon Distance(km) Time Diff (sec)
1 08/22/2012 06:11:34 -29.97, -74.75 08/22/2012 06:05:57 -29.77, -75.71 95.18 337
2 08/22/2012 07:02:41 29.94, 92.48 08/22/2012 06:56:45 29.73, 91.60 87.91 356
3 08/22/2012 07:53:39 -29.97,-100.27 08/22/2012 07:47:27 -29.78,-101.09 81.45 372
4 08/22/2012 08:44:47 29.99, 66.94 08/22/2012 08:38:17 29.86, 66.19 74.04 390
5 08/22/2012 09:35:44 -29.96,-125.79 08/22/2012 09:28:58 -29.84,-126.48 67.73 406
6 08/22/2012 10:26:52 29.98, 41.42 08/22/2012 10:19:47 29.86, 40.81 60.26 425
7 08/22/2012 11:17:49 -29.95,-151.31 08/22/2012 11:10:28 -29.85,-151.85 53.93 441
8 08/22/2012 12:08:57 29.97, 15.90 08/22/2012 12:01:17 29.87, 15.44 46.51 460
9 08/22/2012 12:59:54 -29.94,-176.83 08/22/2012 12:51:58 -29.86,-177.23 40.16 476
10 08/22/2012 13:51:02 29.96, -9.61 08/22/2012 13:42:47 29.88, -9.94 32.84 495
11 08/22/2012 14:42:00 -29.99, 157.64 08/22/2012 14:33:29 -29.92, 157.38 26.43 511
12 08/22/2012 15:33:07 29.96, -35.13 08/22/2012 15:24:18 29.94, -35.33 19.19 529
13 08/22/2012 16:24:05 -29.98, 132.12 08/22/2012 16:15:00 -29.99, 131.98 13.03 545
14 08/22/2012 17:15:12 29.95, -60.65 08/22/2012 17:05:48 29.95, -60.71 5.38 564
15 08/22/2012 18:05:04 -26.14, 107.64 08/22/2012 17:55:24 -26.14, 107.64
